Weather History for KE38 - November, 2013

Change the Weather History Date:

Saturday, November 16, 2013

  Actual Average (KMRF) Record (KMRF)
Temperature  
Mean Temperature 64 °F -  
Max Temperature 76 °F 63 °F 75 °F (1998)
Min Temperature 52 °F 33 °F 19 °F (2006)
Degree Days  
Heating Degree Days 1    
Growing Degree Days 14 (Base 50)    
Moisture  
Dew Point 47 °F    
Average Humidity 52    
Maximum Humidity 81    
Minimum Humidity 34    
Precipitation  
Precipitation 0.00 in - - ()
Sea Level Pressure  
Sea Level Pressure 29.93 in    
Wind  
Wind Speed 13 mph (SW)    
Max Wind Speed 26 mph    
Max Gust Speed 37 mph    
Visibility 10 miles    
Events      
Averages and records for this station are not official NWS values.
T = Trace of Precipitation, MM = Missing Value Source: NWS Daily Summary

Daily Weather History Graph

Daily Weather History Graph

Search for Another Location

Airport or City:

Trip Planner

Search our weather history database for the weather conditions in past years. The results will help you decide how hot, cold, wet, or windy it might be!

Date:

Astronomy

Nov. 16, 2013 Rise Set
Actual Time 7:21 AM CST 5:57 PM CST
Civil Twilight 6:56 AM CST 6:22 PM CST
Nautical Twilight 6:27 AM CST 6:51 PM CST
Astronomical Twilight 5:58 AM CST 7:20 PM CST
Moon 5:31 PM CST (11/16) 6:23 AM CST (11/16)
Length of Visible Light 11h 26m
Length of Day
10h 35m
Waxing Gibbous, 99% of the Moon is Illuminated
Nov 16
Waxing Gibbous
Nov 17
Full
Nov 25
Last Quarter
Dec 2
New
Dec 9
First Quarter

Hourly Weather History & Observations

Time (CST) Temp. Dew Point Humidity Pressure Visibility Wind Dir Wind Speed Gust Speed Precip Events Conditions
12:15 AM 57.2 °F 47.8 °F 71% 29.97 in 10.0 mi SW 8.1 mph - N/A   Clear
12:35 AM 57.0 °F 47.5 °F 70% 29.97 in 10.0 mi SW 6.9 mph - N/A   Clear
12:55 AM 55.0 °F 47.1 °F 75% 29.97 in 10.0 mi SW 5.8 mph - N/A   Clear
1:15 AM 53.8 °F 47.1 °F 78% 29.97 in 10.0 mi SSW 6.9 mph - N/A   Clear
1:35 AM 54.5 °F 47.3 °F 77% 29.96 in 10.0 mi SSW 6.9 mph - N/A   Clear
1:55 AM 52.7 °F 47.1 °F 81% 29.96 in 10.0 mi South 6.9 mph - N/A   Clear
2:15 AM 54.1 °F 47.3 °F 78% 29.96 in 10.0 mi SSW 8.1 mph - N/A   Clear
2:35 AM 52.7 °F 46.6 °F 80% 29.96 in 10.0 mi WSW 4.6 mph - N/A   Clear
2:55 AM 55.9 °F 47.1 °F 72% 29.95 in 10.0 mi SW 9.2 mph - N/A   Scattered Clouds
3:15 AM 56.1 °F 46.8 °F 71% 29.94 in 10.0 mi SSW 4.6 mph - N/A   Mostly Cloudy
3:35 AM 53.2 °F 46.4 °F 78% 29.94 in 10.0 mi SW 5.8 mph - N/A   Scattered Clouds
3:55 AM 53.6 °F 46.0 °F 76% 29.94 in 10.0 mi WSW 4.6 mph - N/A   Clear
4:15 AM 52.0 °F 45.7 °F 79% 29.93 in 10.0 mi SSW 4.6 mph - N/A   Scattered Clouds
4:35 AM 55.4 °F 46.0 °F 71% 29.93 in 10.0 mi SSW 8.1 mph - N/A   Scattered Clouds
4:55 AM 57.0 °F 46.4 °F 68% 29.92 in 10.0 mi SW 5.8 mph - N/A   Clear
5:15 AM 59.9 °F 46.4 °F 61% 29.93 in 10.0 mi SW 13.8 mph 18.4 mph N/A   Clear
5:35 AM 60.6 °F 47.3 °F 61% 29.92 in 10.0 mi SW 15.0 mph 20.7 mph N/A   Clear
5:55 AM 61.0 °F 47.3 °F 61% 29.92 in 10.0 mi SW 13.8 mph - N/A   Clear
6:15 AM 60.1 °F 47.5 °F 63% 29.93 in 10.0 mi SW 10.4 mph - N/A   Clear
6:35 AM 59.5 °F 47.3 °F 64% 29.93 in 10.0 mi SW 10.4 mph - N/A   Clear
6:55 AM 59.9 °F 47.8 °F 64% 29.94 in 10.0 mi SW 12.7 mph - N/A   Clear
7:15 AM 59.2 °F 48.0 °F 66% 29.94 in 10.0 mi SW 9.2 mph - N/A   Clear
7:35 AM 58.6 °F 47.8 °F 67% 29.95 in 10.0 mi SW 11.5 mph - N/A   Clear
7:55 AM 61.2 °F 48.4 °F 63% 29.96 in 10.0 mi SW 15.0 mph - N/A   Clear
8:15 AM 63.5 °F 48.6 °F 58% 29.96 in 10.0 mi SW 15.0 mph 24.2 mph N/A   Clear
8:35 AM 63.5 °F 48.4 °F 58% 29.96 in 10.0 mi SW 17.3 mph 25.3 mph N/A   Clear
8:55 AM 65.8 °F 48.6 °F 54% 29.97 in 10.0 mi SW 19.6 mph - N/A   Clear
9:15 AM 66.2 °F 48.4 °F 53% 29.97 in 10.0 mi SW 15.0 mph 24.2 mph N/A   Clear
9:35 AM 67.1 °F 48.2 °F 51% 29.97 in 10.0 mi SW 21.9 mph 28.8 mph N/A   Clear
9:55 AM 68.9 °F 48.6 °F 48% 29.98 in 10.0 mi WSW 23.0 mph 27.6 mph N/A   Clear
10:15 AM 71.2 °F 48.4 °F 44% 29.99 in 10.0 mi SW 21.9 mph 29.9 mph N/A   Clear
10:35 AM 70.7 °F 48.2 °F 45% 29.98 in 10.0 mi SW 26.5 mph 32.2 mph N/A   Clear
10:55 AM 73.0 °F 47.3 °F 40% 29.97 in 10.0 mi SW 25.3 mph 32.2 mph N/A   Clear
11:15 AM 73.2 °F 47.1 °F 39% 29.97 in 10.0 mi SW 23.0 mph 33.4 mph N/A   Clear
11:35 AM 73.4 °F 45.3 °F 37% 29.97 in 10.0 mi SW 26.5 mph 31.1 mph N/A   Clear
11:55 AM 74.7 °F 46.9 °F 37% 29.96 in 10.0 mi WSW 24.2 mph 32.2 mph N/A   Clear
12:15 PM 74.5 °F 45.7 °F 36% 29.96 in 10.0 mi SW 25.3 mph 28.8 mph N/A   Scattered Clouds
12:35 PM 75.6 °F 45.0 °F 34% 29.94 in 10.0 mi SW 24.2 mph 36.8 mph N/A   Clear
12:55 PM 75.9 °F 45.7 °F 34% 29.93 in 10.0 mi SW 24.2 mph 33.4 mph N/A   Scattered Clouds
1:15 PM 75.4 °F 46.9 °F 36% 29.92 in 10.0 mi SW 25.3 mph 32.2 mph N/A   Scattered Clouds
1:35 PM 74.3 °F 45.7 °F 36% 29.91 in 10.0 mi SW 21.9 mph 33.4 mph N/A   Scattered Clouds
1:55 PM 76.6 °F 45.9 °F 34% 29.91 in 10.0 mi SW 26.5 mph 33.4 mph N/A   Scattered Clouds
2:15 PM 74.5 °F 45.5 °F 36% 29.90 in 10.0 mi SW 23.0 mph 29.9 mph N/A   Clear
2:35 PM 75.6 °F 45.5 °F 34% 29.89 in 10.0 mi SW 23.0 mph 33.4 mph N/A   Clear
2:55 PM 75.7 °F 45.5 °F 34% 29.88 in 10.0 mi SW 26.5 mph 34.5 mph N/A   Clear
3:15 PM 75.4 °F 45.1 °F 34% 29.88 in 10.0 mi SW 23.0 mph 33.4 mph N/A   Clear
3:35 PM 75.6 °F 45.1 °F 34% 29.88 in 10.0 mi SW 21.9 mph 28.8 mph N/A   Clear
3:55 PM 75.2 °F 45.5 °F 35% 29.88 in 10.0 mi SW 20.7 mph 29.9 mph N/A   Clear
4:15 PM 75.4 °F 45.3 °F 34% 29.87 in 10.0 mi SW 21.9 mph 29.9 mph N/A   Clear
4:35 PM 74.3 °F 45.0 °F 35% 29.88 in 10.0 mi SW 19.6 mph 28.8 mph N/A   Clear
4:55 PM 72.5 °F 44.8 °F 37% 29.88 in 10.0 mi SW 20.7 mph 26.5 mph N/A   Scattered Clouds
5:15 PM 73.4 °F 45.7 °F 37% 29.89 in 10.0 mi SW 12.7 mph 21.9 mph N/A   Scattered Clouds
5:35 PM 71.1 °F 44.8 °F 39% 29.89 in 10.0 mi SW 11.5 mph - N/A   Clear
5:55 PM 70.2 °F 45.5 °F 41% 29.89 in 10.0 mi SSW 12.7 mph 18.4 mph N/A   Clear
6:15 PM 70.2 °F 46.0 °F 42% 29.89 in 10.0 mi SSW 15.0 mph - N/A   Clear
6:35 PM 69.6 °F 46.0 °F 43% 29.89 in 10.0 mi SW 16.1 mph - N/A   Clear
6:55 PM 69.1 °F 46.2 °F 44% 29.91 in 10.0 mi SSW 12.7 mph 19.6 mph N/A   Scattered Clouds
7:15 PM 68.2 °F 46.4 °F 46% 29.91 in 10.0 mi SW 11.5 mph - N/A   Scattered Clouds
7:35 PM 68.7 °F 46.6 °F 45% 29.91 in 10.0 mi SW 17.3 mph 20.7 mph N/A   Scattered Clouds
7:55 PM 69.1 °F 46.9 °F 45% 29.91 in 10.0 mi SW 13.8 mph 26.5 mph N/A   Clear
8:15 PM 67.8 °F 46.9 °F 47% 29.92 in 10.0 mi SW 9.2 mph - N/A   Clear
8:35 PM 66.6 °F 47.3 °F 50% 29.93 in 10.0 mi SW 8.1 mph - N/A   Clear
8:55 PM 66.6 °F 47.3 °F 50% 29.93 in 10.0 mi SW 11.5 mph - N/A   Clear
9:15 PM 67.6 °F 47.1 °F 48% 29.93 in 10.0 mi SSW 12.7 mph 16.1 mph N/A   Clear
9:35 PM 68.2 °F 46.9 °F 47% 29.93 in 10.0 mi SW 16.1 mph 21.9 mph N/A   Clear
9:55 PM 68.0 °F 47.1 °F 47% 29.93 in 10.0 mi SSW 15.0 mph 20.7 mph N/A   Clear
10:15 PM 67.3 °F 47.5 °F 49% 29.94 in 10.0 mi SW 16.1 mph 21.9 mph N/A   Clear
10:35 PM 67.1 °F 48.2 °F 51% 29.94 in 10.0 mi SW 19.6 mph 23.0 mph N/A   Clear
10:55 PM 66.2 °F 48.2 °F 52% 29.96 in 10.0 mi SW 13.8 mph - N/A   Clear
11:15 PM 65.5 °F 48.2 °F 54% 29.96 in 10.0 mi SW 12.7 mph 20.7 mph N/A   Clear
11:35 PM 64.4 °F 48.4 °F 56% 29.96 in 10.0 mi WSW 13.8 mph 20.7 mph N/A   Clear
11:55 PM 63.0 °F 48.2 °F 59% 29.96 in 10.0 mi SW 10.4 mph - N/A   Clear